Weather History for KIDP - August, 2013

Change the Weather History Date:

Thursday, August 29, 2013

  Actual Average (KCNU) Record (KCNU)
Temperature  
Mean Temperature 84 °F 77 °F  
Max Temperature 95 °F 88 °F 105 °F (1954)
Min Temperature 73 °F 66 °F 45 °F (1988)
Degree Days  
Heating Degree Days 0 0  
Month to date heating degree days 0  
Since 1 June heating degree days 6  
Since 1 July heating degree days 0  
Cooling Degree Days 19 12  
Month to date cooling degree days 408  
Year to date cooling degree days 1282  
Since 1 June cooling degree days 1149  
Growing Degree Days 34 (Base 50)    
Moisture  
Dew Point 70 °F    
Average Humidity 70    
Maximum Humidity 94    
Minimum Humidity 41    
Precipitation  
Precipitation 0.00 in 0.11 in 2.12 in (1928)
Month to date precipitation 3.46  
Year to date precipitation 30.26  
Sea Level Pressure  
Sea Level Pressure 30.02 in    
Wind  
Wind Speed 4 mph (South)    
Max Wind Speed 12 mph    
Max Gust Speed -    
Visibility 10 miles    
Events      
T = Trace of Precipitation, MM = Missing Value Source: NWS Daily Summary

Daily Weather History Graph

Daily Weather History Graph

Search for Another Location

Airport or City:

Trip Planner

Search our weather history database for the weather conditions in past years. The results will help you decide how hot, cold, wet, or windy it might be!

Date:

Astronomy

Aug. 29, 2013 Rise Set
Actual Time 6:51 AM CDT 7:55 PM CDT
Civil Twilight 6:24 AM CDT 8:22 PM CDT
Nautical Twilight 5:52 AM CDT 8:54 PM CDT
Astronomical Twilight 5:19 AM CDT 9:27 PM CDT
Moon 12:47 AM CDT (8/29) 3:21 PM CDT (8/29)
Length of Visible Light 13h 57m
Length of Day
13h 04m
Last Quarter, 38% of the Moon is Illuminated
Aug 29
Last Quarter
Sep 5
New
Sep 12
First Quarter
Sep 19
Full
Sep 26
Last Quarter

Hourly Weather History & Observations

Time (CDT) Temp. Heat Index Dew Point Humidity Pressure Visibility Wind Dir Wind Speed Gust Speed Precip Events Conditions
12:15 AM 77.0 °F - 71.6 °F 83% 30.03 in 10.0 mi South 3.5 mph - N/A   Clear
12:35 AM 75.2 °F - 71.6 °F 89% 30.03 in 10.0 mi South 3.5 mph - N/A   Clear
12:55 AM 75.2 °F - 71.6 °F 89% 30.03 in 10.0 mi Calm Calm - N/A   Clear
1:15 AM 75.2 °F - 71.6 °F 89% 30.03 in 10.0 mi Calm Calm - N/A   Clear
1:35 AM 75.2 °F - 71.6 °F 89% 30.03 in 10.0 mi Calm Calm - N/A   Clear
1:55 AM 75.2 °F - 71.6 °F 89% 30.03 in 10.0 mi SE 3.5 mph - N/A   Clear
2:15 AM 73.4 °F - 71.6 °F 94% 30.03 in 10.0 mi Calm Calm - N/A   Clear
2:35 AM 73.4 °F - 71.6 °F 94% 30.03 in 10.0 mi Calm Calm - N/A   Clear
2:55 AM 73.4 °F - 69.8 °F 88% 30.03 in 10.0 mi SSE 3.5 mph - N/A   Clear
3:15 AM 73.4 °F - 69.8 °F 88% 30.03 in 10.0 mi Calm Calm - N/A   Scattered Clouds
3:35 AM 73.4 °F - 69.8 °F 88% 30.04 in 10.0 mi Calm Calm - N/A   Mostly Cloudy
3:55 AM 73.4 °F - 69.8 °F 88% 30.03 in 10.0 mi Calm Calm - N/A   Overcast
4:15 AM 73.4 °F - 71.6 °F 94% 30.03 in 10.0 mi SSE 3.5 mph - N/A   Overcast
4:35 AM 73.4 °F - 71.6 °F 94% 30.03 in 10.0 mi South 3.5 mph - N/A   Mostly Cloudy
4:55 AM 73.4 °F - 69.8 °F 88% 30.03 in 10.0 mi South 3.5 mph - N/A   Scattered Clouds
5:15 AM 73.4 °F - 69.8 °F 88% 30.03 in 10.0 mi SSE 4.6 mph - N/A   Scattered Clouds
5:35 AM 73.4 °F - 69.8 °F 88% 30.04 in 10.0 mi SSE 4.6 mph - N/A   Mostly Cloudy
5:55 AM 73.4 °F - 71.6 °F 94% 30.04 in 10.0 mi Calm Calm - N/A   Overcast
6:15 AM 73.4 °F - 69.8 °F 88% 30.05 in 10.0 mi South 3.5 mph - N/A   Overcast
6:35 AM 73.4 °F - 71.6 °F 94% 30.05 in 10.0 mi South 3.5 mph - N/A   Overcast
6:55 AM 73.4 °F - 71.6 °F 94% 30.05 in 10.0 mi South 3.5 mph - N/A   Overcast
7:15 AM 73.4 °F - 71.6 °F 94% 30.05 in 10.0 mi South 3.5 mph - N/A   Overcast
7:35 AM 75.2 °F - 69.8 °F 83% 30.06 in 10.0 mi South 4.6 mph - N/A   Overcast
7:55 AM 77.0 °F - 69.8 °F 78% 30.05 in 10.0 mi South 5.8 mph - N/A   Overcast
8:15 AM 77.0 °F - 69.8 °F 78% 30.05 in 10.0 mi South 5.8 mph - N/A   Overcast
8:35 AM 77.0 °F - 69.8 °F 78% 30.06 in 10.0 mi South 4.6 mph - N/A   Overcast
8:55 AM 78.8 °F - 71.6 °F 78% 30.06 in 10.0 mi South 6.9 mph - N/A   Mostly Cloudy
9:15 AM 80.6 °F 83.9 °F 69.8 °F 70% 30.06 in 10.0 mi South 6.9 mph - N/A   Mostly Cloudy
9:35 AM 82.4 °F 86.3 °F 69.8 °F 66% 30.06 in 10.0 mi SSW 9.2 mph - N/A   Mostly Cloudy
9:55 AM 82.4 °F 87.2 °F 71.6 °F 70% 30.06 in 7.0 mi South 6.9 mph - N/A   Scattered Clouds
10:15 AM 84.2 °F 88.4 °F 69.8 °F 62% 30.06 in 10.0 mi South 6.9 mph - N/A   Scattered Clouds
10:35 AM 86.0 °F 91.8 °F 71.6 °F 62% 30.06 in 10.0 mi South 5.8 mph - N/A   Clear
10:55 AM 86.0 °F 90.4 °F 69.8 °F 58% 30.06 in 10.0 mi South 9.2 mph - N/A   Clear
11:15 AM 86.0 °F 90.4 °F 69.8 °F 58% 30.06 in 10.0 mi South 8.1 mph - N/A   Clear
11:35 AM 87.8 °F 92.6 °F 69.8 °F 55% 30.06 in 10.0 mi South 8.1 mph - N/A   Clear
12:15 PM 87.8 °F 92.6 °F 69.8 °F 55% 30.05 in 10.0 mi SSW 6.9 mph - N/A   Clear
12:55 PM 91.4 °F 96.8 °F 69.8 °F 49% 30.04 in 10.0 mi South 9.2 mph - N/A   Clear
1:15 PM 91.4 °F 96.8 °F 69.8 °F 49% 30.03 in 10.0 mi SSW 11.5 mph - N/A   Clear
1:35 PM 91.4 °F 96.8 °F 69.8 °F 49% 30.03 in 10.0 mi SSW 8.1 mph - N/A   Clear
1:55 PM 91.4 °F 95.4 °F 68.0 °F 46% 30.03 in 10.0 mi WSW 6.9 mph - N/A   Clear
2:15 PM 91.4 °F 95.4 °F 68.0 °F 46% 30.03 in 10.0 mi SW 10.4 mph - N/A   Clear
2:35 PM 93.2 °F 97.7 °F 68.0 °F 44% 30.02 in 10.0 mi SW 11.5 mph - N/A   Scattered Clouds
2:55 PM 93.2 °F 97.7 °F 68.0 °F 44% 30.01 in 10.0 mi SW 8.1 mph - N/A   Clear
3:15 PM 91.4 °F 95.4 °F 68.0 °F 46% 30.01 in 10.0 mi SW 11.5 mph - N/A   Clear
3:35 PM 91.4 °F 95.4 °F 68.0 °F 46% 30.00 in 10.0 mi SSW 6.9 mph - N/A   Clear
3:55 PM 93.2 °F 98.8 °F 69.8 °F 46% 30.00 in 10.0 mi South 10.4 mph - N/A   Clear
4:15 PM 95.0 °F 99.5 °F 68.0 °F 41% 29.99 in 10.0 mi SW 10.4 mph - N/A   Clear
4:35 PM 93.2 °F 97.7 °F 68.0 °F 44% 29.99 in 10.0 mi South 10.4 mph - N/A   Clear
4:55 PM 93.2 °F 96.2 °F 66.2 °F 41% 29.99 in 10.0 mi SSW 9.2 mph - N/A   Clear
5:15 PM 93.2 °F 96.2 °F 66.2 °F 41% 29.99 in 10.0 mi SSW 10.4 mph - N/A   Clear
5:35 PM 91.4 °F 94.0 °F 66.2 °F 43% 29.99 in 7.0 mi SSW 8.1 mph - N/A   Clear
5:55 PM 91.4 °F 94.0 °F 66.2 °F 43% 29.98 in 10.0 mi SSW 8.1 mph - N/A   Clear
6:15 PM 91.4 °F 94.0 °F 66.2 °F 43% 29.98 in 10.0 mi SSW 8.1 mph - N/A   Clear
6:35 PM 91.4 °F 95.4 °F 68.0 °F 46% 29.98 in 10.0 mi South 6.9 mph - N/A   Clear
6:55 PM 89.6 °F 93.4 °F 68.0 °F 49% 29.98 in 10.0 mi SSW 4.6 mph - N/A   Clear
7:15 PM 89.6 °F 93.4 °F 68.0 °F 49% 29.98 in 10.0 mi South 4.6 mph - N/A   Clear
7:35 PM 87.8 °F 92.6 °F 69.8 °F 55% 29.98 in 10.0 mi South 4.6 mph - N/A   Clear
7:55 PM 86.0 °F 90.4 °F 69.8 °F 58% 29.98 in 10.0 mi South 3.5 mph - N/A   Clear
8:15 PM 82.4 °F 86.3 °F 69.8 °F 66% 29.98 in 10.0 mi SSE 3.5 mph - N/A   Clear
8:35 PM 82.4 °F 86.3 °F 69.8 °F 66% 29.98 in 10.0 mi SSE 3.5 mph - N/A   Clear
8:55 PM 80.6 °F 84.6 °F 71.6 °F 74% 29.99 in 10.0 mi SSE 4.6 mph - N/A   Clear
9:15 PM 80.6 °F 84.6 °F 71.6 °F 74% 29.99 in 7.0 mi SSE 5.8 mph - N/A   Clear
9:35 PM 78.8 °F - 71.6 °F 78% 29.99 in 10.0 mi South 5.8 mph - N/A   Clear
9:55 PM 78.8 °F - 71.6 °F 78% 29.99 in 10.0 mi South 3.5 mph - N/A   Clear
10:15 PM 78.8 °F - 71.6 °F 78% 29.99 in 10.0 mi South 3.5 mph - N/A   Clear
10:35 PM 77.0 °F - 71.6 °F 83% 29.99 in 10.0 mi South 4.6 mph - N/A   Clear
10:55 PM 77.0 °F - 71.6 °F 83% 29.98 in 10.0 mi South 3.5 mph - N/A   Clear
11:15 PM 77.0 °F - 71.6 °F 83% 29.98 in 10.0 mi South 4.6 mph - N/A   Clear
11:35 PM 77.0 °F - 71.6 °F 83% 29.98 in 10.0 mi SSE 4.6 mph - N/A   Clear
11:55 PM 77.0 °F - 69.8 °F 78% 29.98 in 10.0 mi SSE 4.6 mph - N/A   Clear